Sheboygan Falls, WI

11:22 AM CST on December 10, 2016 (GMT -0600)
Sheboygan County Memorial

Weather History for KSBM - October, 2013

Change the Weather History Date:

Monday, October 7, 2013

  Actual Average Record
Temperature  
Mean Temperature 54 °F -  
Max Temperature 64 °F 61 °F 87 °F (2007)
Min Temperature 43 °F 43 °F 24 °F (2001)
Degree Days  
Heating Degree Days 11    
Growing Degree Days 4 (Base 50)    
Moisture  
Dew Point 45 °F    
Average Humidity 83    
Maximum Humidity 100    
Minimum Humidity 45    
Precipitation  
Precipitation 0.03 in - - ()
Sea Level Pressure  
Sea Level Pressure 29.83 in    
Wind  
Wind Speed 9 mph (WNW)    
Max Wind Speed 16 mph    
Max Gust Speed 22 mph    
Visibility 9 miles    
Events Rain    
Averages and records for this station are not official NWS values.
T = Trace of Precipitation, MM = Missing Value Source: NWS Daily Summary

Daily Weather History Graph

Daily Weather History Graph

Search for Another Location

Airport or City:

Trip Planner

Search our weather history database for the weather conditions in past years. The results will help you decide how hot, cold, wet, or windy it might be!

Date:

Astronomy

Oct. 07, 2013 Rise Set
Actual Time 6:56 AM CDT 6:21 PM CDT
Civil Twilight 6:27 AM CDT 6:49 PM CDT
Nautical Twilight 5:54 AM CDT 7:23 PM CDT
Astronomical Twilight 5:20 AM CDT 7:56 PM CDT
Moon 9:52 AM CDT (10/7) 7:59 PM CDT (10/7)
Length of Visible Light 12h 22m
Length of Day
11h 24m
Waxing Crescent, 9% of the Moon is Illuminated
Oct 7
Waxing Crescent
Oct 11
First Quarter
Oct 18
Full
Oct 26
Last Quarter
Nov 3
New

Hourly Weather History & Observations

Time (CDT) Temp. Dew Point Humidity Pressure Visibility Wind Dir Wind Speed Gust Speed Precip Events Conditions
12:53 AM 50.0 °F 44.1 °F 80% 29.69 in 10.0 mi West 5.8 mph - N/A   Overcast
1:53 AM 50.0 °F 44.1 °F 80% 29.69 in 10.0 mi West 10.4 mph - 0.00 in   Overcast
2:53 AM 48.0 °F 44.1 °F 86% 29.68 in 10.0 mi West 9.2 mph - N/A   Mostly Cloudy
3:53 AM 48.0 °F 44.1 °F 86% 29.68 in 9.0 mi West 11.5 mph 19.6 mph 0.00 in Rain Light Rain
4:24 AM 48.2 °F 46.4 °F 93% 29.69 in 10.0 mi West 11.5 mph - 0.01 in   Overcast
4:39 AM 48.2 °F 46.4 °F 93% 29.70 in 10.0 mi West 10.4 mph - 0.01 in Rain Light Rain
4:53 AM 48.0 °F 46.0 °F 93% 29.71 in 10.0 mi West 10.4 mph - 0.01 in Rain Light Rain
5:08 AM 48.2 °F 46.4 °F 93% 29.71 in 8.0 mi West 11.5 mph - 0.00 in Rain Light Rain
5:25 AM 48.2 °F 46.4 °F 93% 29.71 in 5.0 mi West 8.1 mph - 0.00 in Rain Light Rain
5:44 AM 48.2 °F 48.2 °F 100% 29.72 in 6.0 mi West 6.9 mph - 0.00 in Rain Light Rain
5:53 AM 48.0 °F 48.0 °F 100% 29.73 in 3.0 mi WNW 5.8 mph - 0.01 in Rain Light Rain
6:05 AM 48.2 °F 48.2 °F 100% 29.73 in 4.0 mi WNW 8.1 mph - 0.00 in Rain Light Rain
6:48 AM 48.2 °F 48.2 °F 100% 29.74 in 10.0 mi NW 10.4 mph - 0.01 in Rain Light Rain
6:53 AM 48.9 °F 48.0 °F 97% 29.75 in 10.0 mi NW 10.4 mph 18.4 mph 0.01 in Rain Light Rain
7:11 AM 48.2 °F 46.4 °F 93% 29.75 in 8.0 mi NW 11.5 mph 20.7 mph 0.00 in Rain Light Rain
7:39 AM 48.2 °F 46.4 °F 93% 29.77 in 10.0 mi NW 9.2 mph - 0.00 in   Overcast
7:53 AM 48.9 °F 46.0 °F 90% 29.78 in 10.0 mi NW 11.5 mph - 0.00 in   Scattered Clouds
8:53 AM 51.1 °F 46.0 °F 83% 29.81 in 10.0 mi WNW 9.2 mph 17.3 mph N/A   Clear
9:53 AM 53.1 °F 46.0 °F 77% 29.83 in 10.0 mi NW 15.0 mph 20.7 mph N/A   Partly Cloudy
10:53 AM 55.9 °F 46.0 °F 69% 29.86 in 10.0 mi WNW 11.5 mph - N/A   Clear
11:53 AM 57.9 °F 46.9 °F 67% 29.88 in 10.0 mi West 12.7 mph 18.4 mph N/A   Clear
12:53 PM 59.0 °F 46.0 °F 62% 29.89 in 10.0 mi WNW 11.5 mph 19.6 mph N/A   Partly Cloudy
1:53 PM 61.0 °F 45.0 °F 56% 29.90 in 10.0 mi WNW 11.5 mph 19.6 mph N/A   Clear
2:53 PM 61.0 °F 44.1 °F 54% 29.91 in 10.0 mi West 13.8 mph 19.6 mph N/A   Scattered Clouds
3:53 PM 63.0 °F 41.0 °F 45% 29.93 in 10.0 mi WNW 16.1 mph 21.9 mph N/A   Partly Cloudy
4:53 PM 62.1 °F 41.0 °F 46% 29.94 in 10.0 mi West 11.5 mph - N/A   Clear
5:53 PM 59.0 °F 43.0 °F 55% 29.96 in 10.0 mi WNW 4.6 mph - N/A   Clear
6:53 PM 48.9 °F 43.0 °F 80% 29.99 in 10.0 mi Calm Calm - N/A   Clear
7:53 PM 46.9 °F 44.1 °F 90% 30.02 in 10.0 mi Calm Calm - N/A   Clear
8:53 PM 45.0 °F 43.0 °F 93% 30.04 in 10.0 mi Calm Calm - N/A   Clear
9:53 PM 45.0 °F 43.0 °F 93% 30.07 in 10.0 mi Calm Calm - N/A   Clear
10:53 PM 45.0 °F 43.0 °F 93% 30.08 in 10.0 mi Calm Calm - N/A   Clear
11:53 PM 43.0 °F 43.0 °F 100% 30.09 in 10.0 mi Calm Calm - N/A   Clear